Tiempo atmosférico en la estación meteorológica de Bustillo del Páramo, León (850 m.)



Fecha
DESCASC
Temp. máxima en grados centígrados (hora)
DESCASC
Temp. mínima en grados centígrados (hora)
DESCASC
Temp. media en grados centígrados
DESCASC
Racha de viento máxima en m/sg (hora)
DESCASC
Velocidad máxima media en intervalos de 10 minutos(hora)
DESCASC
Precipitaciones diarias en mm
DESCASC
Precipitaciones de 00:00 a 06:00 en mm
DESCASC
Precipitaciones de 06:00 a 12:00 en mm
DESCASC
Precipitaciones de 12:00 a 18:00 en mm
DESCASC
Precipitaciones de 18:00 a 24:00 en mm
DESCASC
15-08-2019 28.9 (17:50) 12.5 (07:40) 20.7 7.78 (00:20) 4.72 (00:20) 0 0 0 0 0
14-08-2019 28.8 (16:40) 9.7 (00:00) 19.2 9.17 (16:30) 6.11 (19:10) 0 0 0 0 0
13-08-2019 24 (18:00) 7 (00:00) 15.5 5.28 (18:20) 3.61 (19:00) 0 0 0 0 0
12-08-2019 22 (16:40) 6.5 (00:00) 14.3 8.06 (14:00) 4.17 (13:20) 0 0 0 0 0
11-08-2019 21.5 (15:30) 11.3 (00:00) 16.4 12.78 (18:10) 8.61 (18:30) 0 0 0 0 0
10-08-2019 23.9 (18:00) 11.6 (00:00) 17.8 8.61 (20:30) 5 (20:00) 0 0 0 0 0
09-08-2019 23.9 (15:20) 15.7 (00:00) 19.8 12.22 (15:00) 7.78 (15:00) 1.4 0 1.4 0 0
08-08-2019 25.3 (16:30) 15.3 (00:00) 20.3 12.5 (18:50) 7.5 (18:50) 0 0 0 0 0
07-08-2019 23.4 (12:40) 14.9 (00:00) 19.1 10 (15:40) 6.39 (18:50) 1.6 0 0 0 1.6
06-08-2019 27.3 (18:00) 13.4 (00:00) 20.3 10.83 (19:40) 6.94 (19:40) 0 0 0 0 0
05-08-2019 29.7 (18:20) 12.1 (00:00) 20.9 5.83 (22:40) 3.89 (22:20) 0 0 0 0 0
04-08-2019 31.2 (17:00) 13.6 (00:00) 22.4 9.44 (21:00) 6.11 (21:00) 0 0 0 0 0
03-08-2019 31.3 (17:00) 13 (00:00) 22.1 8.33 (20:40) 5 (20:10) 0 0 0 0 0
02-08-2019 29.6 (18:30) 11.1 (00:00) 20.4 5.28 (17:20) 3.89 (23:20) 0 0 0 0 0
01-08-2019 28.3 (17:20) 10.8 (00:00) 19.5 -- (--) -- (--) -- 0 0 -- 0
31-07-2019 25.6 (16:50) 8.4 (00:00) 17 5.56 (14:30) 3.61 (10:10) 0 0 0 0 0
30-07-2019 23.5 (18:00) 8.5 (00:00) 16 7.78 (00:20) 5.28 (06:40) 0 0 0 0 0
29-07-2019 21.5 (16:20) 10.5 (00:00) 16 12.5 (16:50) 8.61 (17:10) 0 0 0 0 0
28-07-2019 24.4 (18:40) 8 (00:00) 16.2 6.39 (17:50) 3.61 (17:50) 0 0 0 0 0
27-07-2019 21.1 (18:00) 12.3 (00:00) 16.7 8.61 (20:10) 5.83 (17:10) 3 0.2 2.6 0.2 0
26-07-2019 24.2 (16:40) 13 (00:00) 18.6 9.17 (15:20) 6.11 (10:40) 0 0 0 0 0
25-07-2019 29.3 (14:50) 14.2 (00:00) 21.7 10.56 (16:30) 7.22 (18:30) 0 0 0 0 0
24-07-2019 32.3 (17:20) 14.5 (00:00) 23.4 7.78 (16:00) 5 (17:10) 0 0 0 0 0
23-07-2019 30.8 (17:40) 15.1 (00:00) 22.9 19.17 (01:30) 6.94 (20:20) 0.4 0.4 0 0 0
22-07-2019 33.8 (18:00) 14.6 (00:00) 24.2 15.83 (20:40) 10 (20:40) 1 0 0 0 1
21-07-2019 30.9 (18:40) 12.8 (00:00) 21.8 7.78 (23:50) 4.17 (23:50) 0 0 0 0 0
20-07-2019 30.6 (18:20) 14.9 (00:00) 22.8 7.78 (04:20) 5.83 (04:20) 0 0 0 0 0
19-07-2019 31.6 (17:50) 12.3 (00:00) 22 8.06 (19:50) 5 (19:50) 0 0 0 0 0

Gráficas

Temp. máximas Temp. mínimas Temp. medias Precipitaciones Rachas de viento máximas Velocidades máximas media en intervalos de 10 minutos

Datos horarios

Fecha y hora oficial Temperatura (ºC) Velocidad del viento (km/h) Dirección del viento Racha (km/h) Dirección de racha Precipitación (mm) Presión (hPa) Tendencia (hPa) Humedad (%)
2019-08-17 23:00:00 20.7 12 Oeste 18 Oeste 0 -- -- 54
2019-08-17 22:00:00 21.9 12 Oeste 20 Oeste 0 -- -- 54
2019-08-17 21:00:00 26 11 Oeste 19 Noroeste 0 -- -- 43
2019-08-17 20:00:00 28.6 15 Noroeste 27 Noroeste 0 -- -- 35
2019-08-17 19:00:00 30.3 13 Noroeste 24 Noroeste 0 -- -- 33
2019-08-17 18:00:00 29.9 4 Norte 12 Norte 0 -- -- 35
2019-08-17 17:00:00 29.5 8 Nordeste 17 Este 0 -- -- 35
2019-08-17 16:00:00 28.9 10 Este 19 Sudeste 0 -- -- 35
2019-08-17 15:00:00 28.5 11 Sur 19 Sur 0 -- -- 37
2019-08-17 14:00:00 27.3 8 Sudeste 16 Sur 0 -- -- 41
2019-08-17 13:00:00 25.7 8 Sudeste 16 Sur 0 -- -- 43
2019-08-17 12:00:00 24 8 Sur 14 Sur 0 -- -- 48
2019-08-17 11:00:00 21.4 5 Sudoeste 12 Sudoeste 0 -- -- 57
2019-08-17 10:00:00 18.9 3 Noroeste 10 Noroeste 0 -- -- 62
2019-08-17 09:00:00 15.5 4 Noroeste 13 Noroeste 0 -- -- 73
2019-08-17 08:00:00 12.3 9 Noroeste 14 Noroeste 0 -- -- 81
2019-08-17 07:00:00 12.7 3 Noroeste 16 Noroeste 0 -- -- 85
2019-08-17 06:00:00 14 11 Noroeste 18 Oeste 0 -- -- 84
2019-08-17 05:00:00 14.5 3 Noroeste 13 Noroeste 0 -- -- 83
2019-08-17 04:00:00 16.5 10 Noroeste 28 Oeste 0 -- -- 80
2019-08-17 03:00:00 18.1 20 Oeste 33 Oeste 0 -- -- 73
2019-08-17 02:00:00 17.9 14 Noroeste 22 Noroeste 0 -- -- 73
2019-08-17 01:00:00 17.3 13 Noroeste 20 Oeste 0 -- -- 72
2019-08-17 00:00:00 19.1 13 Noroeste 17 Oeste 0 -- -- 63
2019-08-16 23:00:00 20.1 7 Noroeste 17 Oeste 0 -- -- 56
2019-08-16 22:00:00 22.4 12 Noroeste 22 Oeste 0 -- -- 42
2019-08-16 21:00:00 25 12 Oeste 27 Oeste 0 -- -- 34
2019-08-16 20:00:00 27.6 15 Oeste 26 Oeste 0 -- -- 29
2019-08-16 19:00:00 30.7 9 Oeste 15 Oeste 0 -- -- 30
2019-08-16 18:00:00 30.6 6 Sur 15 Sur 0 -- -- 33
2019-08-16 17:00:00 29.7 9 Sudeste 18 Sudeste 0 -- -- 34
2019-08-16 16:00:00 29.6 11 Sur 18 Sur 0 -- -- 33
2019-08-16 15:00:00 28.4 8 Sudeste 17 Sudeste 0 -- -- 39
2019-08-16 14:00:00 26.8 6 Sudoeste 15 Sur 0 -- -- 45
2019-08-16 13:00:00 25.5 5 Sudoeste 13 Sudoeste 0 -- -- 47
2019-08-16 12:00:00 24 4 Sur 10 Norte 0 -- -- 51
2019-08-16 11:00:00 21.5 6 Noroeste 10 Noroeste 0 -- -- 58
2019-08-16 10:00:00 18.3 3 Norte 6 Noroeste 0 -- -- 72
2019-08-16 09:00:00 14.4 5 Norte 12 Norte 0 -- -- 87
2019-08-16 08:00:00 12.2 8 Noroeste 10 Noroeste 0 -- -- 91
2019-08-16 07:00:00 12.3 8 Norte 10 Norte 0 -- -- 91
2019-08-16 06:00:00 12.7 6 Norte 10 Noroeste 0 -- -- 90
2019-08-16 05:00:00 13.4 5 Noroeste 10 Noroeste 0 -- -- 89
2019-08-16 04:00:00 14.2 6 Noroeste 9 Norte 0 -- -- 87
2019-08-16 03:00:00 15.1 6 Noroeste 8 Noroeste 0 -- -- 84
2019-08-16 02:00:00 16 3 Nordeste 9 Noroeste 0 -- -- 82
2019-08-16 01:00:00 16.8 7 Norte 9 Norte 0 -- -- 78
2019-08-16 00:00:00 18.5 8 Este 12 Este 0 -- -- 71
2019-08-15 23:00:00 19.6 8 Nordeste 14 Norte 0 -- -- 68
2019-08-15 22:00:00 21.4 10 Norte 16 Norte 0 -- -- 65
2019-08-15 21:00:00 25.5 9 Noroeste 13 Oeste 0 -- -- 51
2019-08-15 20:00:00 28.2 5 Sudoeste 15 Sur 0 -- -- 43
2019-08-15 19:00:00 28.7 9 Sudeste 16 Sur 0 -- -- 41
2019-08-15 18:00:00 28.9 8 Sur 17 Sur 0 -- -- 38
2019-08-15 17:00:00 28.3 7 Sur 19 Sudeste 0 -- -- 40
2019-08-15 16:00:00 27.8 9 Sudeste 18 Sur 0 -- -- 39
2019-08-15 15:00:00 26.6 7 Sur 15 Sur 0 -- -- 40
2019-08-15 14:00:00 25.4 9 Sudeste 15 Sudeste 0 -- -- 40
2019-08-15 13:00:00 23.6 8 Sudeste 15 Sudeste 0 -- -- 41
2019-08-15 12:00:00 22.1 7 Sudeste 15 Sudeste 0 -- -- 41
2019-08-15 11:00:00 21.2 6 Este 13 Sudeste 0 -- -- 42
2019-08-15 10:00:00 18.5 7 Norte 15 Norte 0 -- -- 54
2019-08-15 09:00:00 15.4 4 Norte 15 Noroeste 0 -- -- 76
2019-08-15 08:00:00 13 11 Noroeste 18 Noroeste 0 -- -- 89
2019-08-15 07:00:00 12.6 10 Noroeste 22 Noroeste 0 -- -- 90
2019-08-15 06:00:00 12.7 5 Norte 14 Noroeste 0 -- -- 88
2019-08-15 05:00:00 12.7 10 Norte 14 Norte 0 -- -- 86
2019-08-15 04:00:00 13.9 8 Norte 12 Norte 0 -- -- 85
2019-08-15 03:00:00 14.7 9 Noroeste 24 Noroeste 0 -- -- 83
2019-08-15 02:00:00 16.7 17 Noroeste 27 Noroeste 0 -- -- 82
2019-08-15 01:00:00 17.4 5 Norte 28 Noroeste 0 -- -- 79
2019-08-15 00:00:00 18.5 15 Noroeste 22 Noroeste 0 -- -- 74
2019-08-14 23:00:00 20.4 17 Oeste 28 Oeste 0 -- -- 64
2019-08-14 22:00:00 21.8 19 Oeste 30 Noroeste 0 -- -- 60
2019-08-14 21:00:00 24.2 15 Oeste 32 Oeste 0 -- -- 56
2019-08-14 20:00:00 26.5 22 Oeste 32 Oeste 0 -- -- 48
2019-08-14 19:00:00 28 17 Oeste 33 Oeste 0 -- -- 44
2019-08-14 18:00:00 28.7 18 Oeste 30 Oeste 0 -- -- 39
2019-08-14 17:00:00 28.8 17 Oeste 33 Oeste 0 -- -- 40
2019-08-14 16:00:00 28.2 5 Sudoeste 20 Sur 0 -- -- 41
2019-08-14 15:00:00 26.9 9 Sur 17 Sur 0 -- -- 42
2019-08-14 14:00:00 25 8 Sudoeste 14 Sudoeste 0 -- -- 43
2019-08-14 13:00:00 23 7 Sudoeste 14 Sudoeste 0 -- -- 47
2019-08-14 12:00:00 21.4 4 Sudoeste 10 Sudoeste 0 -- -- 50
2019-08-14 11:00:00 19.6 3 Noroeste 11 Norte 0 -- -- 55
2019-08-14 10:00:00 16.7 7 Norte 13 Noroeste 0 -- -- 67
2019-08-14 09:00:00 12.7 6 Noroeste 11 Noroeste 0 -- -- 86
2019-08-14 08:00:00 10 5 Noroeste 11 Noroeste 0 -- -- 91
2019-08-14 07:00:00 9.8 8 Noroeste 13 Noroeste 0 -- -- 90
2019-08-14 06:00:00 10.2 5 Noroeste 11 Noroeste 0 -- -- 90
2019-08-14 05:00:00 10.6 5 Norte 10 Norte 0 -- -- 88
2019-08-14 04:00:00 11.6 5 Norte 10 Nordeste 0 -- -- 84
2019-08-14 03:00:00 12.9 6 Nordeste 11 Este 0 -- -- 77
2019-08-14 02:00:00 12.3 8 Nordeste 13 Nordeste 0 -- -- 82
2019-08-14 01:00:00 13.3 8 Noroeste 14 Noroeste 0 -- -- 76
2019-08-14 00:00:00 14.4 6 Norte 10 Oeste 0 -- -- 74
2019-08-13 23:00:00 15.4 9 Noroeste 13 Oeste 0 -- -- 69
2019-08-13 22:00:00 18.4 2 Sudeste 8 Sudeste 0 -- -- 62
2019-08-13 21:00:00 21.5 6 Sudeste 13 Sudeste 0 -- -- 48
2019-08-13 20:00:00 23.3 10 Sudeste 17 Sudeste 0 -- -- 37
2019-08-13 19:00:00 23.8 13 Sudeste 19 Sudeste 0 -- -- 35
2019-08-13 18:00:00 24 12 Sur 17 Sudeste 0 -- -- 32
2019-08-13 17:00:00 23 8 Sudeste 16 Sudeste 0 -- -- 37
2019-08-13 16:00:00 21.8 8 Sudeste 14 Sudeste 0 -- -- 39
2019-08-13 15:00:00 20.7 8 Sur 15 Nordeste 0 -- -- 48
2019-08-13 14:00:00 19.3 8 Sur 16 Este 0 -- -- 51
2019-08-13 13:00:00 17.9 6 Sur 15 Sur 0 -- -- 54
2019-08-13 12:00:00 16.4 4 Sudeste 12 Sur 0 -- -- 60
2019-08-13 11:00:00 14.7 4 Sur 9 Este 0 -- -- 66
2019-08-13 10:00:00 12.6 2 Oeste 6 Noroeste 0 -- -- 76
2019-08-13 09:00:00 9.9 4 Norte 8 Noroeste 0 -- -- 90
2019-08-13 08:00:00 7.2 5 Noroeste 9 Noroeste 0 -- -- 93
2019-08-13 07:00:00 7.2 5 Norte 7 Norte 0 -- -- 92
2019-08-13 06:00:00 7.7 3 Noroeste 8 Noroeste 0 -- -- 90
2019-08-13 05:00:00 8.6 4 Noroeste 5 Norte 0 -- -- 88
2019-08-13 04:00:00 9.5 4 Norte 5 Norte 0 -- -- 87
2019-08-13 03:00:00 10.9 0 Calma 8 Este 0 -- -- 83
2019-08-13 02:00:00 11.7 6 Este 11 Nordeste 0 -- -- 77
2019-08-13 01:00:00 12.3 6 Nordeste 12 Nordeste 0 -- -- 73
2019-08-13 00:00:00 13.2 8 Nordeste 16 Nordeste 0 -- -- 69
2019-08-12 23:00:00 13.8 9 Nordeste 20 Nordeste 0 -- -- 67
2019-08-12 22:00:00 15.1 8 Norte 10 Norte 0 -- -- 64
2019-08-12 21:00:00 17.6 5 Nordeste 20 Norte 0 -- -- 52
2019-08-12 20:00:00 18.6 11 Nordeste 19 Nordeste 0 -- -- 48
2019-08-12 19:00:00 19.3 8 Noroeste 18 Oeste 0 -- -- 44
2019-08-12 18:00:00 21.1 5 Noroeste 12 Oeste 0 -- -- 36
2019-08-12 17:00:00 21.5 3 Norte 17 Noroeste 0 -- -- 34
2019-08-12 16:00:00 20.8 4 Noroeste 19 Noroeste 0 -- -- 33
2019-08-12 15:00:00 20.4 13 Noroeste 27 Noroeste 0 -- -- 34
2019-08-12 14:00:00 19.4 12 Norte 29 Noroeste 0 -- -- 37
2019-08-12 13:00:00 18 12 Noroeste 25 Noroeste 0 -- -- 41
2019-08-12 12:00:00 16.5 14 Noroeste 25 Noroeste 0 -- -- 47
2019-08-12 11:00:00 15 14 Norte 23 Noroeste 0 -- -- 49
2019-08-12 10:00:00 12.4 10 Noroeste 18 Noroeste 0 -- -- 72
2019-08-12 09:00:00 9 11 Noroeste 18 Noroeste 0 -- -- 88
2019-08-12 08:00:00 6.6 9 Noroeste 13 Noroeste 0 -- -- 92
2019-08-12 07:00:00 7.2 5 Norte 18 Noroeste 0 -- -- 91
2019-08-12 06:00:00 8 12 Noroeste 17 Noroeste 0 -- -- 90
2019-08-12 05:00:00 8.2 10 Oeste 17 Oeste 0 -- -- 88
2019-08-12 04:00:00 8.8 12 Oeste 22 Oeste 0 -- -- 85
2019-08-12 03:00:00 9.2 9 Noroeste 21 Noroeste 0 -- -- 81
2019-08-12 02:00:00 8.8 7 Oeste 10 Noroeste 0 -- -- 85
2019-08-12 01:00:00 9.6 5 Noroeste 9 Noroeste 0 -- -- 82
2019-08-12 00:00:00 11.3 7 Noroeste 18 Noroeste 0 -- -- 72
2019-08-11 23:00:00 12.3 11 Noroeste 23 Noroeste 0 -- -- 66
2019-08-11 22:00:00 13.8 14 Noroeste 29 Oeste 0 -- -- 60
2019-08-11 21:00:00 15.2 18 Oeste 33 Noroeste 0 -- -- 59
2019-08-11 20:00:00 17.5 24 Oeste 41 Oeste 0 -- -- 50
2019-08-11 19:00:00 19.2 25 Oeste 46 Oeste 0 -- -- 45
2019-08-11 18:00:00 21.2 20 Noroeste 36 Oeste 0 -- -- 33
2019-08-11 17:00:00 21.4 22 Oeste 36 Oeste 0 -- -- 33
2019-08-11 16:00:00 21.4 17 Oeste 33 Oeste 0 -- -- 35
2019-08-11 15:00:00 21.1 15 Oeste 31 Noroeste 0 -- -- 37
2019-08-11 14:00:00 20.1 16 Noroeste 30 Oeste 0 -- -- 44
2019-08-11 13:00:00 18.9 9 Oeste 18 Oeste 0 -- -- 50
2019-08-11 12:00:00 16.6 3 Oeste 12 Noroeste 0 -- -- 66
2019-08-11 11:00:00 14.5 7 Oeste 15 Oeste 0 -- -- 80
2019-08-11 10:00:00 15.2 4 Sudoeste 8 Sudoeste 0 -- -- 77
2019-08-11 09:00:00 13.8 0 Calma 7 Noroeste 0 -- -- 87
2019-08-11 08:00:00 12.4 4 Noroeste 5 Norte 0 -- -- 92
2019-08-11 07:00:00 12.3 0 Calma 8 Noroeste 0 -- -- 89
2019-08-11 06:00:00 12.8 4 Noroeste 19 Este 0 -- -- 87
2019-08-11 05:00:00 13.9 14 Este 20 Este 0 -- -- 83
2019-08-11 04:00:00 14.4 10 Sudeste 18 Sudeste 0 -- -- 83
2019-08-11 03:00:00 15 4 Este 14 Nordeste 0 -- -- 75
2019-08-11 02:00:00 14.9 5 Norte 12 Norte 0 -- -- 78
2019-08-11 01:00:00 15.1 5 Nordeste 11 Norte 0 -- -- 77
2019-08-11 00:00:00 15.5 6 Norte 13 Noroeste 0 -- -- 77
2019-08-10 23:00:00 17 9 Noroeste 25 Noroeste 0 -- -- 65
2019-08-10 22:00:00 17.8 11 Noroeste 28 Oeste 0 -- -- 54
2019-08-10 21:00:00 19.7 17 Oeste 31 Noroeste 0 -- -- 48
2019-08-10 20:00:00 22 18 Noroeste 27 Noroeste 0 -- -- 45
2019-08-10 19:00:00 23.5 9 Sudeste 18 Este 0 -- -- 39
2019-08-10 18:00:00 23.9 10 Sudeste 18 Sudeste 0 -- -- 37
2019-08-10 17:00:00 23.3 7 Sudeste 18 Este 0 -- -- 39
2019-08-10 16:00:00 22.5 7 Sudeste 18 Este 0 -- -- 41
2019-08-10 15:00:00 21.4 4 Noroeste 17 Este 0 -- -- 45
2019-08-10 14:00:00 21.1 4 Sudeste 14 Sudoeste 0 -- -- 45
2019-08-10 13:00:00 19.5 7 Noroeste 18 Noroeste 0 -- -- 48
2019-08-10 12:00:00 18.4 11 Noroeste 24 Oeste 0 -- -- 54
2019-08-10 11:00:00 16.9 13 Oeste 28 Oeste 0 -- -- 63
2019-08-10 10:00:00 15.2 13 Oeste 23 Oeste 0 -- -- 71
2019-08-10 09:00:00 13.7 12 Oeste 17 Noroeste 0 -- -- 80
2019-08-10 08:00:00 11.9 5 Oeste 18 Noroeste 0 -- -- 86
2019-08-10 07:00:00 12.3 12 Noroeste 20 Oeste 0 -- -- 82
2019-08-10 06:00:00 13.5 9 Oeste 20 Noroeste 0 -- -- 81
2019-08-10 05:00:00 13.8 7 Oeste 13 Noroeste 0 -- -- 82
2019-08-10 04:00:00 14.2 7 Oeste 13 Oeste 0 -- -- 79
2019-08-10 03:00:00 14.6 7 Oeste 15 Oeste 0 -- -- 75
2019-08-10 02:00:00 14.9 6 Noroeste 18 Oeste 0 -- -- 75
2019-08-10 01:00:00 15.4 9 Oeste 21 Oeste 0 -- -- 71
2019-08-10 00:00:00 15.7 6 Oeste 17 Oeste 0 -- -- 68
2019-08-09 23:00:00 16.3 10 Oeste 21 Oeste 0 -- -- 64
2019-08-09 22:00:00 16.8 12 Oeste 25 Noroeste 0 -- -- 60
2019-08-09 21:00:00 18.4 13 Oeste 25 Noroeste 0 -- -- 58
2019-08-09 20:00:00 19.9 15 Noroeste 24 Oeste 0 -- -- 54
2019-08-09 19:00:00 21.7 18 Sudoeste 33 Sudoeste 0 -- -- 48
2019-08-09 18:00:00 23.8 15 Sudoeste 34 Sudoeste 0 -- -- 46
2019-08-09 17:00:00 22.3 18 Noroeste 32 Noroeste 0 -- -- 47
2019-08-09 16:00:00 22.9 15 Oeste 41 Sudoeste 0 -- -- 45
2019-08-09 15:00:00 23.3 28 Sudoeste 44 Sudoeste 0 -- -- 46
2019-08-09 14:00:00 22.2 18 Sur 33 Sur 0 -- -- 49
2019-08-09 13:00:00 22.2 15 Sur 26 Sudoeste 0 -- -- 49
2019-08-09 12:00:00 20.1 13 Sudoeste 24 Sudoeste 0 -- -- 62
2019-08-09 11:00:00 18.6 6 Noroeste 25 Sudoeste 0 -- -- 73
2019-08-09 10:00:00 17.5 16 Sudoeste 31 Sur 0 -- -- 81
2019-08-09 09:00:00 17.1 20 Sur 32 Sur 0 -- -- 89
2019-08-09 08:00:00 17.9 15 Sur 30 Sudeste 1.4 -- -- 93
2019-08-09 07:00:00 18.2 20 Sur 36 Sur 0 -- -- 93
2019-08-09 06:00:00 18.5 19 Sur 30 Sur 0 -- -- 90
2019-08-09 05:00:00 19.4 21 Sur 40 Sur 0 -- -- 85
2019-08-09 04:00:00 19.3 22 Sur 34 Sur 0 -- -- 84
2019-08-09 03:00:00 19 14 Sur 31 Sur 0 -- -- 84
2019-08-09 02:00:00 19.1 3 Sudoeste 20 Sur 0 -- -- 83
2019-08-09 01:00:00 19.5 6 Sur 22 Sudoeste 0 -- -- 80
2019-08-09 00:00:00 21 5 Sudoeste 17 Sur 0 -- -- 72
2019-08-08 23:00:00 20.9 12 Sur 26 Sur 0 -- -- 71
2019-08-08 22:00:00 21.9 17 Sudoeste 36 Sudoeste 0 -- -- 65
2019-08-08 21:00:00 22.7 17 Sudoeste 33 Sudoeste 0 -- -- 66
2019-08-08 20:00:00 23.6 19 Sudoeste 36 Sudoeste 0 -- -- 66
2019-08-08 19:00:00 24.6 27 Sudoeste 45 Sur 0 -- -- 62
2019-08-08 18:00:00 24.7 15 Sudoeste 35 Sur 0 -- -- 63
2019-08-08 17:00:00 24.6 22 Sur 32 Sur 0 -- -- 62
2019-08-08 16:00:00 23.8 20 Sur 34 Sur 0 -- -- 69
2019-08-08 15:00:00 22.7 16 Sur 33 Sur 0 -- -- 77
2019-08-08 14:00:00 23.2 20 Sur 30 Sur 0 -- -- 72
2019-08-08 13:00:00 20.7 14 Sudeste 25 Sudeste 0 -- -- 81
2019-08-08 12:00:00 19.4 22 Sudeste 31 Sur 0 -- -- 85
2019-08-08 11:00:00 19.1 13 Sur 28 Sur 0 -- -- 86
2019-08-08 10:00:00 17.9 11 Sur 31 Sur 0 -- -- 91
2019-08-08 09:00:00 17.6 18 Sur 28 Sur 0 -- -- 92
2019-08-08 08:00:00 16.2 4 Sudeste 13 Sur 0 -- -- 94
2019-08-08 07:00:00 15.7 4 Sudeste 17 Sur 0 -- -- 93
2019-08-08 06:00:00 16.5 9 Sur 24 Sur 0 -- -- 92
2019-08-08 05:00:00 16.6 16 Sur 24 Sur 0 -- -- 93
2019-08-08 04:00:00 17 9 Sur 20 Sur 0 -- -- 91
2019-08-08 03:00:00 16.9 7 Sudoeste 15 Sudoeste 0 -- -- 92
2019-08-08 02:00:00 16.4 4 Sudoeste 11 Sur 0 -- -- 94
2019-08-08 01:00:00 15.8 0 Calma 6 Sudeste 0 -- -- 95
2019-08-08 00:00:00 15.3 5 Este 8 Este 0 -- -- 94
2019-08-07 23:00:00 15.8 6 Este 8 Sudeste 0 -- -- 92
2019-08-07 22:00:00 16.9 3 Sudeste 10 Sur 0 -- -- 91
2019-08-07 21:00:00 17.2 6 Sur 19 Sudoeste 0 -- -- 90
2019-08-07 20:00:00 17.6 10 Sudoeste 23 Sudoeste 1.4 -- -- 90
2019-08-07 19:00:00 18.2 17 Sudoeste 33 Sudoeste 0.2 -- -- 82
2019-08-07 18:00:00 22 12 Sur 24 Sur 0 -- -- 59
2019-08-07 17:00:00 22 15 Sudoeste 29 Sur 0 -- -- 57
2019-08-07 16:00:00 22.8 17 Sur 36 Sudoeste 0 -- -- 50
2019-08-07 15:00:00 22.1 8 Sur 35 Sur 0 -- -- 54
2019-08-07 14:00:00 23.2 10 Sur 22 Sur 0 -- -- 51
2019-08-07 13:00:00 23 13 Sur 21 Sur 0 -- -- 50
2019-08-07 12:00:00 23 8 Sur 12 Sudeste 0 -- -- 47
2019-08-07 11:00:00 21.3 4 Sur 13 Noroeste 0 -- -- 51
2019-08-07 10:00:00 19.2 6 Noroeste 11 Noroeste 0 -- -- 63
2019-08-07 09:00:00 16.9 4 Norte 12 Noroeste 0 -- -- 72
2019-08-07 08:00:00 15 7 Noroeste 11 Noroeste 0 -- -- 80
2019-08-07 07:00:00 16.2 8 Noroeste 14 Noroeste 0 -- -- 76
2019-08-07 06:00:00 16.7 9 Noroeste 14 Noroeste 0 -- -- 75
2019-08-07 05:00:00 16.8 9 Noroeste 15 Oeste 0 -- -- 78
2019-08-07 04:00:00 16.7 5 Noroeste 12 Noroeste 0 -- -- 78
2019-08-07 03:00:00 16.7 7 Noroeste 12 Noroeste 0 -- -- 78
2019-08-07 02:00:00 17.3 8 Oeste 12 Oeste 0 -- -- 78
2019-08-07 01:00:00 17.9 0 Calma 22 Noroeste 0 -- -- 77
2019-08-07 00:00:00 18.4 14 Noroeste 26 Noroeste 0 -- -- 69
2019-08-06 23:00:00 18.3 14 Noroeste 22 Noroeste 0 -- -- 74
2019-08-06 22:00:00 19.5 13 Noroeste 24 Noroeste 0 -- -- 67
2019-08-06 21:00:00 21 15 Noroeste 38 Noroeste 0 -- -- 60
2019-08-06 20:00:00 22.4 18 Oeste 39 Oeste 0 -- -- 56
2019-08-06 19:00:00 24.4 20 Oeste 31 Noroeste 0 -- -- 50
2019-08-06 18:00:00 27.3 3 Noroeste 6 Oeste 0 -- -- 47
2019-08-06 17:00:00 26.3 6 Norte 10 Nordeste 0 -- -- 47
2019-08-06 16:00:00 25.9 4 Noroeste 9 Sudoeste 0 -- -- 48
2019-08-06 15:00:00 24.5 4 Sudoeste 13 Sur 0 -- -- 53
2019-08-06 14:00:00 24 8 Sur 13 Sur 0 -- -- 57
2019-08-06 13:00:00 23.9 9 Sur 15 Sudeste 0 -- -- 56
2019-08-06 12:00:00 23.1 4 Sur 10 Sudeste 0 -- -- 58
2019-08-06 11:00:00 19.5 2 Norte 12 Noroeste 0 -- -- 72
2019-08-06 10:00:00 17.4 5 Noroeste 9 Noroeste 0 -- -- 83
2019-08-06 09:00:00 14.6 3 Noroeste 15 Noroeste 0 -- -- 91
2019-08-06 08:00:00 13.5 6 Noroeste 10 Noroeste 0 -- -- 91
2019-08-06 07:00:00 13.6 5 Noroeste 9 Noroeste 0 -- -- 89
2019-08-06 06:00:00 14.6 3 Norte 9 Noroeste 0 -- -- 86
2019-08-06 05:00:00 16 3 Noroeste 10 Noroeste 0 -- -- 85
2019-08-06 04:00:00 16.7 10 Noroeste 15 Noroeste 0 -- -- 83
2019-08-06 03:00:00 16.8 8 Noroeste 14 Norte 0 -- -- 81
2019-08-06 02:00:00 17.6 5 Norte 12 Norte 0 -- -- 78
2019-08-06 01:00:00 17.9 8 Nordeste 15 Noroeste 0 -- -- 76
2019-08-06 00:00:00 20 8 Noroeste 17 Noroeste 0 -- -- 64
2019-08-05 23:00:00 21.8 12 Noroeste 21 Oeste 0 -- -- 57
2019-08-05 22:00:00 22.8 12 Oeste 18 Noroeste 0 -- -- 53
2019-08-05 21:00:00 26.5 9 Oeste 16 Oeste 0 -- -- 47
2019-08-05 20:00:00 29.4 3 Sur 9 Este 0 -- -- 36
2019-08-05 19:00:00 29.6 4 Sudeste 13 Este 0 -- -- 34
2019-08-05 18:00:00 29.5 6 Este 15 Sudeste 0 -- -- 34
2019-08-05 17:00:00 29.4 8 Sudeste 20 Sudeste 0 -- -- 38
2019-08-05 16:00:00 28.5 11 Sudeste 21 Este 0 -- -- 38
2019-08-05 15:00:00 27.5 7 Sudeste 13 Sur 0 -- -- 39
2019-08-05 14:00:00 25.8 3 Sudoeste 15 Sudoeste 0 -- -- 46
2019-08-05 13:00:00 24.2 4 Sudoeste 13 Sudoeste 0 -- -- 53
2019-08-05 12:00:00 22.3 6 Sudoeste 15 Oeste 0 -- -- 60
2019-08-05 11:00:00 20.6 5 Oeste 11 Noroeste 0 -- -- 65
2019-08-05 10:00:00 18.1 8 Norte 16 Noroeste 0 -- -- 72
2019-08-05 09:00:00 14.9 8 Norte 15 Noroeste 0 -- -- 83
2019-08-05 08:00:00 12.4 8 Noroeste 13 Norte 0 -- -- 89
2019-08-05 07:00:00 12.3 9 Noroeste 14 Noroeste 0 -- -- 90
2019-08-05 06:00:00 13.2 8 Noroeste 12 Noroeste 0 -- -- 89
2019-08-05 05:00:00 14.1 4 Norte 10 Norte 0 -- -- 89
2019-08-05 04:00:00 14.7 6 Noroeste 9 Noroeste 0 -- -- 87
2019-08-05 03:00:00 15.5 4 Norte 8 Noroeste 0 -- -- 86
2019-08-05 02:00:00 16.3 4 Norte 12 Norte 0 -- -- 81
2019-08-05 01:00:00 16.9 6 Norte 14 Noroeste 0 -- -- 76
2019-08-05 00:00:00 19.1 12 Noroeste 17 Noroeste 0 -- -- 63
2019-08-04 23:00:00 20.1 11 Oeste 20 Oeste 0 -- -- 60
2019-08-04 22:00:00 23.2 17 Oeste 27 Oeste 0 -- -- 47
2019-08-04 21:00:00 25.8 22 Oeste 34 Oeste 0 -- -- 42
2019-08-04 20:00:00 28 17 Oeste 31 Oeste 0 -- -- 38
2019-08-04 19:00:00 29.9 13 Noroeste 25 Oeste 0 -- -- 38
2019-08-04 18:00:00 30.4 9 Oeste 27 Sudoeste 0 -- -- 34
2019-08-04 17:00:00 31.2 12 Sur 25 Este 0 -- -- 31
2019-08-04 16:00:00 29.1 18 Este 26 Este 0 -- -- 41
2019-08-04 15:00:00 27.8 12 Sudeste 19 Sudeste 0 -- -- 43
2019-08-04 14:00:00 26.3 6 Este 17 Sudeste 0 -- -- 48
2019-08-04 13:00:00 25.3 8 Sur 14 Sur 0 -- -- 53
2019-08-04 12:00:00 23.9 5 Sudeste 10 Sudeste 0 -- -- 56
2019-08-04 11:00:00 22.2 3 Noroeste 12 Noroeste 0 -- -- 64
2019-08-04 10:00:00 19.4 6 Noroeste 14 Norte 0 -- -- 75
2019-08-04 09:00:00 16.2 5 Norte 15 Noroeste 0 -- -- 83
2019-08-04 08:00:00 14.2 8 Noroeste 13 Noroeste 0 -- -- 89
2019-08-04 07:00:00 13.8 8 Noroeste 13 Noroeste 0 -- -- 89
2019-08-04 06:00:00 14.3 9 Noroeste 14 Noroeste 0 -- -- 89
2019-08-04 05:00:00 14.7 6 Norte 12 Noroeste 0 -- -- 88
2019-08-04 04:00:00 15.5 10 Noroeste 13 Noroeste 0 -- -- 87
2019-08-04 03:00:00 16.1 6 Noroeste 13 Noroeste 0 -- -- 86
2019-08-04 02:00:00 16.8 9 Noroeste 11 Noroeste 0 -- -- 83
2019-08-04 01:00:00 18.1 5 Nordeste 10 Nordeste 0 -- -- 79
2019-08-04 00:00:00 18.4 6 Norte 12 Noroeste 0 -- -- 79
2019-08-03 23:00:00 20.6 8 Noroeste 16 Noroeste 0 -- -- 62
2019-08-03 22:00:00 23.3 12 Noroeste 21 Oeste 0 -- -- 44
2019-08-03 21:00:00 26.7 14 Oeste 30 Oeste 0 -- -- 35
2019-08-03 20:00:00 29.5 17 Oeste 26 Oeste 0 -- -- 33
2019-08-03 19:00:00 30.7 6 Noroeste 13 Este 0 -- -- 33
2019-08-03 18:00:00 30.7 8 Este 15 Este 0 -- -- 34
2019-08-03 17:00:00 31.3 8 Sudeste 18 Este 0 -- -- 29
2019-08-03 16:00:00 30.8 10 Sudeste 17 Sudeste 0 -- -- 30
2019-08-03 15:00:00 29.9 7 Sudoeste 18 Sudoeste 0 -- -- 37
2019-08-03 14:00:00 29.1 7 Sur 12 Sur 0 -- -- 35
2019-08-03 13:00:00 27.8 5 Sur 13 Este 0 -- -- 40
2019-08-03 12:00:00 26.3 5 Este 12 Este 0 -- -- 40
2019-08-03 11:00:00 24.6 5 Este 10 Este 0 -- -- 40
2019-08-03 10:00:00 20.9 6 Noroeste 9 Noroeste 0 -- -- 62
2019-08-03 09:00:00 16.7 9 Noroeste 14 Noroeste 0 -- -- 79
2019-08-03 08:00:00 13.6 9 Noroeste 13 Noroeste 0 -- -- 88
2019-08-03 07:00:00 13.2 8 Noroeste 12 Noroeste 0 -- -- 87
2019-08-03 06:00:00 13.7 10 Noroeste 17 Noroeste 0 -- -- 85
2019-08-03 05:00:00 14.3 9 Norte 13 Norte 0 -- -- 82
2019-08-03 04:00:00 15 6 Norte 15 Nordeste 0 -- -- 83
2019-08-03 03:00:00 15.6 7 Norte 11 Noroeste 0 -- -- 84
2019-08-03 02:00:00 16.3 9 Noroeste 13 Noroeste 0 -- -- 80
2019-08-03 01:00:00 17.6 8 Norte 15 Nordeste 0 -- -- 73
2019-08-03 00:00:00 19 9 Nordeste 19 Norte 0 -- -- 67
2019-08-02 23:00:00 20 11 Norte 19 Noroeste 0 -- -- 65
2019-08-02 22:00:00 23.5 4 Este 9 Sudeste 0 -- -- 58
2019-08-02 21:00:00 26.4 5 Sudeste 12 Sudeste 0 -- -- 48
2019-08-02 20:00:00 28.4 7 Sudeste 13 Sudeste 0 -- -- 36
2019-08-02 19:00:00 29.4 10 Sudeste 15 Sur 0 -- -- 32
2019-08-02 18:00:00 29.4 9 Sudeste 19 Sur 0 -- -- 30
2019-08-02 17:00:00 29 9 Sudeste 15 Este 0 -- -- 30
2019-08-02 16:00:00 28.5 5 Sur 14 Sudoeste 0 -- -- 32
2019-08-02 15:00:00 27.1 7 Sudoeste 14 Sudoeste 0 -- -- 38
2019-08-02 14:00:00 26.2 6 Sur 12 Sur 0 -- -- 39
2019-08-02 13:00:00 24.9 3 Norte 9 Sudoeste 0 -- -- 41
2019-08-02 12:00:00 22.3 3 Sudoeste 9 Sudoeste 0 -- -- 59
2019-08-02 11:00:00 19.7 3 Oeste 9 Noroeste 0 -- -- 66
2019-08-02 10:00:00 17.5 6 Noroeste 10 Noroeste 0 -- -- 76
2019-08-02 09:00:00 14.4 4 Noroeste 11 Noroeste 0 -- -- 85
2019-08-02 08:00:00 11.9 6 Norte 9 Norte 0 -- -- 90
2019-08-02 07:00:00 11.2 5 Norte 7 Norte 0 -- -- 91
2019-08-02 06:00:00 11.9 3 Norte 5 Norte 0 -- -- 90
2019-08-02 05:00:00 12.4 0 Calma 6 Oeste 0 -- -- 88
2019-08-02 04:00:00 13.1 3 Oeste 5 Este 0 -- -- 86
2019-08-02 03:00:00 13.8 6 Este 15 Este 0 -- -- 82
2019-08-02 02:00:00 15.2 8 Nordeste 10 Nordeste 0 -- -- 79
2019-08-02 01:00:00 16.3 5 Nordeste 9 Este 0 -- -- 74
2019-08-02 00:00:00 18.3 5 Nordeste 15 Nordeste 0 -- -- 64
2019-08-01 23:00:00 18.4 12 Nordeste 15 Norte 0 -- -- 66
2019-08-01 22:00:00 21.6 13 Noroeste 26 Noroeste 0 -- -- 50
2019-08-01 21:00:00 26 0 Calma 4 Sur 0 -- -- 50
2019-08-01 20:00:00 26.9 3 Sur 9 Sudeste 0 -- -- 42
2019-08-01 19:00:00 27.5 4 Sur 12 Sur 0 -- -- 35
2019-08-01 18:00:00 27.6 8 Sur 15 Este 0 -- -- 37
2019-08-01 17:00:00 27.8 8 Sur 17 Sudeste 0 -- -- 37
2019-08-01 16:00:00 27.3 10 Sudeste 18 Sudeste 0 -- -- 37
2019-08-01 15:00:00 26.6 8 Sur 21 Sur 0 -- -- 36
2019-08-01 14:00:00 25.6 4 Sudoeste -- -- -- -- -- 41
2019-08-01 13:00:00 24.1 5 Sur 13 Este 0 -- -- 51
2019-08-01 12:00:00 22.5 5 Este 13 Nordeste 0 -- -- 53
2019-08-01 11:00:00 21 4 Sudeste 9 Este 0 -- -- 54
2019-08-01 10:00:00 18.1 2 Noroeste 6 Noroeste 0 -- -- 64
2019-08-01 09:00:00 14.3 5 Norte 12 Norte 0 -- -- 79
2019-08-01 08:00:00 11.4 8 Noroeste 11 Noroeste 0 -- -- 89
2019-08-01 07:00:00 10.9 5 Noroeste 9 Noroeste 0 -- -- 89
2019-08-01 06:00:00 11.6 8 Noroeste 13 Noroeste 0 -- -- 87
2019-08-01 05:00:00 12.2 9 Noroeste 13 Noroeste 0 -- -- 84
2019-08-01 04:00:00 13.5 10 Noroeste 16 Noroeste 0 -- -- 80
2019-08-01 03:00:00 14.1 9 Noroeste 12 Noroeste 0 -- -- 80
2019-08-01 02:00:00 15.4 8 Noroeste 9 Noroeste 0 -- -- 76
2019-08-01 01:00:00 16.6 4 Nordeste 11 Nordeste 0 -- -- 72
2019-08-01 00:00:00 17 5 Nordeste 13 Nordeste 0 -- -- 68
2019-07-31 23:00:00 18 7 Nordeste 13 Nordeste 0 -- -- 62
2019-07-31 22:00:00 19.4 6 Noroeste 8 Norte 0 -- -- 66
2019-07-31 21:00:00 23.2 6 Oeste 9 Oeste 0 -- -- 46
2019-07-31 20:00:00 24.3 3 Sudoeste 6 Sur 0 -- -- 39
2019-07-31 19:00:00 24.2 5 Sur 13 Sur 0 -- -- 40
2019-07-31 18:00:00 24.9 7 Sur 14 Sur 0 -- -- 37
2019-07-31 17:00:00 25.2 5 Sur 15 Sudeste 0 -- -- 35
2019-07-31 16:00:00 24.4 5 Sur 17 Este 0 -- -- 38
2019-07-31 15:00:00 24 6 Sur 20 Este 0 -- -- 33
2019-07-31 14:00:00 22.7 6 Este 12 Nordeste 0 -- -- 40
2019-07-31 13:00:00 20.9 4 Sudeste 13 Noroeste 0 -- -- 49
2019-07-31 12:00:00 19 5 Noroeste 17 Noroeste 0 -- -- 56
2019-07-31 11:00:00 17 11 Noroeste 20 Noroeste 0 -- -- 63
2019-07-31 10:00:00 14.2 12 Noroeste 18 Noroeste 0 -- -- 75
2019-07-31 09:00:00 11.5 7 Noroeste 12 Norte 0 -- -- 88
2019-07-31 08:00:00 9.1 6 Noroeste 9 Noroeste 0 -- -- 92
2019-07-31 07:00:00 8.7 4 Noroeste 7 Noroeste 0 -- -- 91
2019-07-31 06:00:00 9.6 4 Norte 6 Noroeste 0 -- -- 90
2019-07-31 05:00:00 10 4 Norte 6 Nordeste 0 -- -- 90
2019-07-31 04:00:00 10.1 6 Norte 9 Norte 0 -- -- 89
2019-07-31 03:00:00 10.9 3 Noroeste 11 Nordeste 0 -- -- 85
2019-07-31 02:00:00 12.1 6 Nordeste 9 Nordeste 0 -- -- 81
2019-07-31 01:00:00 12.8 3 Nordeste 8 Norte 0 -- -- 80
2019-07-31 00:00:00 13.7 5 Nordeste 12 Norte 0 -- -- 76
2019-07-30 23:00:00 15 8 Norte 18 Noroeste 0 -- -- 69
2019-07-30 22:00:00 17.3 11 Noroeste 17 Noroeste 0 -- -- 49
2019-07-30 21:00:00 21.1 9 Oeste 15 Sudoeste 0 -- -- 35
2019-07-30 20:00:00 23 10 Oeste 19 Oeste 0 -- -- 22
2019-07-30 19:00:00 23.3 11 Oeste 19 Oeste 0 -- -- 31
2019-07-30 18:00:00 23.5 8 Noroeste 17 Oeste 0 -- -- 31
2019-07-30 17:00:00 22.7 5 Noroeste 27 Oeste 0 -- -- 31
2019-07-30 16:00:00 21.9 7 Noroeste 17 Sur 0 -- -- 34
2019-07-30 15:00:00 20.7 6 Noroeste 15 Noroeste 0 -- -- 38
2019-07-30 14:00:00 19.1 6 Sudoeste 17 Sudoeste 0 -- -- 39
2019-07-30 13:00:00 18.3 3 Noroeste 16 Norte 0 -- -- 45
2019-07-30 12:00:00 16.5 6 Noroeste 23 Oeste 0 -- -- 52
2019-07-30 11:00:00 15.2 10 Noroeste 22 Noroeste 0 -- -- 57
2019-07-30 10:00:00 13.2 10 Noroeste 22 Noroeste 0 -- -- 65
2019-07-30 09:00:00 10.8 9 Norte 15 Norte 0 -- -- 80
2019-07-30 08:00:00 9.1 7 Noroeste 24 Noroeste 0 -- -- 87
2019-07-30 07:00:00 8.6 17 Noroeste 27 Oeste 0 -- -- 87
2019-07-30 06:00:00 8.5 9 Noroeste 25 Noroeste 0 -- -- 87
2019-07-30 05:00:00 9.2 14 Oeste 19 Oeste 0 -- -- 86
2019-07-30 04:00:00 9.3 13 Oeste 17 Oeste 0 -- -- 86
2019-07-30 03:00:00 10.1 10 Noroeste 22 Noroeste 0 -- -- 81
2019-07-30 02:00:00 11.2 15 Oeste 24 Oeste 0 -- -- 77
2019-07-30 01:00:00 11.7 6 Oeste 28 Oeste 0 -- -- 79
2019-07-30 00:00:00 13.1 13 Oeste 28 Oeste 0 -- -- 70
2019-07-29 23:00:00 14.3 21 Oeste 43 Oeste 0 -- -- 63
2019-07-29 22:00:00 15.7 25 Oeste 39 Oeste 0 -- -- 58
2019-07-29 21:00:00 18 24 Oeste 38 Oeste 0 -- -- 47
2019-07-29 20:00:00 19.8 24 Oeste 44 Oeste 0 -- -- 38
2019-07-29 19:00:00 21.1 24 Oeste 43 Oeste 0 -- -- 40
2019-07-29 18:00:00 21.3 29 Oeste 45 Oeste 0 -- -- 41
2019-07-29 17:00:00 21.4 29 Noroeste 45 Oeste 0 -- -- 38
2019-07-29 16:00:00 21.1 27 Noroeste 43 Oeste 0 -- -- 40
2019-07-29 15:00:00 21.1 27 Noroeste 39 Noroeste 0 -- -- 39
2019-07-29 14:00:00 21.1 20 Oeste 32 Oeste 0 -- -- 46
2019-07-29 13:00:00 19.2 18 Noroeste 33 Noroeste 0 -- -- 50
2019-07-29 12:00:00 18.7 19 Noroeste 30 Noroeste 0 -- -- 56
2019-07-29 11:00:00 18.8 15 Oeste 28 Oeste 0 -- -- 61
2019-07-29 10:00:00 17.6 9 Oeste 17 Oeste 0 -- -- 62
2019-07-29 09:00:00 14.9 3 Noroeste 8 Noroeste 0 -- -- 75
2019-07-29 08:00:00 11.7 4 Sur 6 Sudoeste 0 -- -- 87
2019-07-29 07:00:00 10.8 5 Oeste 13 Oeste 0 -- -- 84
2019-07-29 06:00:00 12.1 10 Oeste 17 Oeste 0 -- -- 76
2019-07-29 05:00:00 13.2 11 Noroeste 19 Noroeste 0 -- -- 79
2019-07-29 04:00:00 12.9 12 Noroeste 17 Noroeste 0 -- -- 85
2019-07-29 03:00:00 12.3 7 Noroeste 11 Noroeste 0 -- -- 84
2019-07-29 02:00:00 13.1 6 Noroeste 11 Noroeste 0 -- -- 83
2019-07-29 01:00:00 14.2 6 Noroeste 12 Noroeste 0 -- -- 80
2019-07-29 00:00:00 15.1 8 Noroeste 12 Noroeste 0 -- -- 78
2019-07-28 23:00:00 17.1 9 Noroeste 12 Noroeste 0 -- -- 71
2019-07-28 22:00:00 19.9 8 Norte 10 Norte 0 -- -- 65
2019-07-28 21:00:00 23.6 2 Nordeste 10 Este 0 -- -- 44
2019-07-28 20:00:00 24.3 7 Este 14 Nordeste 0 -- -- 39
2019-07-28 19:00:00 24.2 9 Sudeste 19 Este 0 -- -- 40
2019-07-28 18:00:00 23.9 11 Este 23 Sudeste 0 -- -- 42
2019-07-28 17:00:00 23.1 12 Sudeste 22 Este 0 -- -- 44
2019-07-28 16:00:00 22.6 9 Sudeste 21 Sudeste 0 -- -- 46
2019-07-28 15:00:00 21.1 10 Sur 20 Sur 0 -- -- 50
2019-07-28 14:00:00 19.6 5 Sudeste 19 Sudoeste 0 -- -- 55
2019-07-28 13:00:00 18.1 8 Sur 17 Sudoeste 0 -- -- 59
2019-07-28 12:00:00 17.2 6 Sudeste 14 Sur 0 -- -- 65
2019-07-28 11:00:00 15.4 5 Sur 9 Sur 0 -- -- 68
2019-07-28 10:00:00 13.9 2 Sur 10 Norte 0 -- -- 72
2019-07-28 09:00:00 11.2 6 Norte 13 Norte 0 -- -- 88
2019-07-28 08:00:00 8.7 8 Noroeste 12 Noroeste 0 -- -- 92
2019-07-28 07:00:00 8.1 5 Noroeste 7 Noroeste 0 -- -- 93
2019-07-28 06:00:00 8.5 4 Oeste 8 Oeste 0 -- -- 93
2019-07-28 05:00:00 8.7 6 Sudeste 12 Sudeste 0 -- -- 92
2019-07-28 04:00:00 9.3 7 Noroeste 10 Noroeste 0 -- -- 90
2019-07-28 03:00:00 10 6 Norte 10 Norte 0 -- -- 90
2019-07-28 02:00:00 10.4 4 Oeste 8 Noroeste 0 -- -- 89
2019-07-28 01:00:00 11.3 6 Noroeste 9 Norte 0 -- -- 86
2019-07-28 00:00:00 12.3 0 Calma 13 Norte 0 -- -- 84
2019-07-27 23:00:00 13.3 6 Norte 12 Nordeste 0 -- -- 80
2019-07-26 12:00:00 -- -- -- -- -- -- -- -- --
2019-07-26 11:00:00 -- -- -- -- -- -- -- -- --
2019-07-26 10:00:00 -- -- -- -- -- -- -- -- --
2019-07-26 09:00:00 -- -- -- -- -- -- -- -- --
2019-07-26 08:00:00 13.2 15 Noroeste 27 Oeste 0 -- -- 79
2019-07-26 07:00:00 13.3 14 Noroeste 24 Noroeste 0 -- -- 80
2019-07-26 06:00:00 14.4 14 Noroeste 30 Oeste 0 -- -- 78
2019-07-26 05:00:00 15 18 Oeste 27 Oeste 0 -- -- 78
2019-07-26 04:00:00 15.8 14 Oeste 29 Oeste 0 -- -- 77
2019-07-26 03:00:00 16.2 16 Noroeste 31 Oeste 0 -- -- 80
2019-07-26 02:00:00 16.5 16 Noroeste 24 Noroeste 0 -- -- 83
2019-07-26 01:00:00 17.3 19 Noroeste 31 Oeste 0 -- -- 81
2019-07-26 00:00:00 17.9 19 Oeste 32 Noroeste 0 -- -- 80
2019-07-25 23:00:00 19 13 Noroeste 23 Noroeste 0 -- -- 78
2019-07-25 22:00:00 20 5 Este 20 Nordeste 0 -- -- 71
2019-07-25 21:00:00 20.4 12 Noroeste 20 Oeste 0 -- -- 72
2019-07-25 20:00:00 21.7 16 Oeste 30 Oeste 0 -- -- 63
2019-07-25 19:00:00 25.5 14 Oeste 37 Sudoeste 0 -- -- 46
2019-07-25 18:00:00 27.9 18 Sudoeste 37 Sur 0 -- -- 42
2019-07-25 17:00:00 28.4 21 Sudoeste 38 Sudoeste 0 -- -- 41
2019-07-25 16:00:00 28.9 17 Sudoeste 37 Sur 0 -- -- 40
2019-07-25 15:00:00 29.1 15 Sur 26 Sur 0 -- -- 36
2019-07-25 14:00:00 28.2 15 Sudeste 28 Sudeste 0 -- -- 39
2019-07-25 13:00:00 27 18 Sudeste 28 Sur 0 -- -- 43
2019-07-25 12:00:00 24.5 12 Sudeste 19 Sudeste 0 -- -- 50
2019-07-25 11:00:00 23.1 6 Sudeste 13 Sur 0 -- -- 52
2019-07-25 10:00:00 20.5 3 Sur 6 Sur 0 -- -- 60
2019-07-25 09:00:00 18.4 3 Sudoeste 10 Sur 0 -- -- 69
2019-07-25 08:00:00 15.9 5 Sudeste 15 Este 0 -- -- 79
2019-07-25 07:00:00 15.1 11 Sudeste 15 Este 0 -- -- 85
2019-07-25 06:00:00 14.6 5 Este 8 Este 0 -- -- 88
2019-07-25 05:00:00 14.9 0 Calma 10 Este 0 -- -- 87
2019-07-25 04:00:00 15.9 8 Noroeste 11 Noroeste 0 -- -- 83
2019-07-25 03:00:00 17.2 9 Noroeste 10 Noroeste 0 -- -- 79
2019-07-25 02:00:00 17.9 6 Noroeste 9 Noroeste 0 -- -- 78
2019-07-25 01:00:00 19.1 8 Norte 15 Noroeste 0 -- -- 74
2019-07-25 00:00:00 20.4 12 Noroeste 15 Noroeste 0 -- -- 65
2019-07-24 23:00:00 22.3 8 Noroeste 12 Oeste 0 -- -- 69
2019-07-24 22:00:00 26.3 3 Sur 9 Sur 0 -- -- 51
2019-07-24 21:00:00 29.1 5 Sur 15 Sudoeste 0 -- -- 44
2019-07-24 20:00:00 30.4 9 Sudoeste 20 Sudoeste 0 -- -- 39
2019-07-24 19:00:00 31.2 13 Sur 26 Sur 0 -- -- 35
2019-07-24 18:00:00 31.7 14 Sudeste 25 Sur 0 -- -- 34
2019-07-24 17:00:00 32 14 Sudeste 26 Sudeste 0 -- -- 34
2019-07-24 16:00:00 30.9 17 Sur 28 Sudeste 0 -- -- 39
2019-07-24 15:00:00 29.8 14 Sudeste 23 Sudeste 0 -- -- 43
2019-07-24 14:00:00 28.5 12 Sudeste 20 Sudeste 0 -- -- 48
2019-07-24 13:00:00 27.2 12 Sudeste 19 Sudeste 0 -- -- 49
2019-07-24 12:00:00 25.8 9 Este 15 Nordeste 0 -- -- 50
2019-07-24 11:00:00 24.7 9 Este 17 Este 0 -- -- 50
2019-07-24 10:00:00 22.6 5 Nordeste 13 Este 0 -- -- 59
2019-07-24 09:00:00 18.3 6 Norte 9 Norte 0 -- -- 84
2019-07-24 08:00:00 15.1 6 Norte 10 Norte 0 -- -- 91
2019-07-24 07:00:00 14.6 6 Noroeste 9 Noroeste 0 -- -- 90
2019-07-24 06:00:00 15.2 6 Noroeste 9 Noroeste 0 -- -- 88
2019-07-24 05:00:00 16.3 6 Noroeste 10 Este 0 -- -- 84
2019-07-24 04:00:00 17.8 6 Nordeste 13 Norte 0 -- -- 77
2019-07-24 03:00:00 18.3 7 Nordeste 12 Norte 0 -- -- 76
2019-07-24 02:00:00 18.7 7 Noroeste 15 Este 0 -- -- 75
2019-07-24 01:00:00 19.6 12 Nordeste 20 Nordeste 0 -- -- 71
2019-07-24 00:00:00 17.8 5 Norte 16 Noroeste 0 -- -- 84
2019-07-23 23:00:00 18.4 10 Noroeste 23 Noroeste 0 -- -- 83
2019-07-23 22:00:00 19.5 19 Noroeste 30 Noroeste 0 -- -- 79
2019-07-23 21:00:00 19.8 14 Noroeste 36 Noroeste 0 -- -- 80
2019-07-23 20:00:00 22.5 16 Noroeste 48 Oeste 0 -- -- 70
2019-07-23 19:00:00 29.4 6 Nordeste 10 Este 0 -- -- 47
2019-07-23 18:00:00 29.8 8 Este 17 Sudeste 0 -- -- 45
2019-07-23 17:00:00 30 9 Este 17 Sudeste 0 -- -- 40
2019-07-23 16:00:00 29.6 9 Sudeste 15 Sudeste 0 -- -- 42
2019-07-23 15:00:00 28.8 9 Sur 21 Sudeste 0 -- -- 45
2019-07-23 14:00:00 27.5 14 Sudeste 23 Sudeste 0 -- -- 47
2019-07-23 13:00:00 25.6 6 Sudeste 12 Sudeste 0 -- -- 52
2019-07-23 12:00:00 22.9 9 Sudeste 13 Sudeste 0 -- -- 63
2019-07-23 11:00:00 20.8 8 Nordeste 21 Nordeste 0 -- -- 70
2019-07-23 10:00:00 21.2 13 Nordeste 18 Nordeste 0 -- -- 68
2019-07-23 09:00:00 18.2 10 Nordeste 16 Nordeste 0 -- -- 89
2019-07-23 08:00:00 15.5 4 Nordeste 11 Nordeste 0 -- -- 92
2019-07-23 07:00:00 15.2 4 Noroeste 8 Norte 0 -- -- 91
2019-07-23 06:00:00 15.8 3 Noroeste 9 Sudeste 0 -- -- 89
2019-07-23 05:00:00 16.4 3 Norte 18 Norte 0 -- -- 86
2019-07-23 04:00:00 17.9 12 Norte 20 Norte 0 -- -- 78
2019-07-23 03:00:00 18.4 9 Oeste 28 Norte 0 -- -- 82
2019-07-23 02:00:00 20.3 14 Nordeste 69 Este 0.4 -- -- 70
2019-07-23 01:00:00 20.3 12 Sudeste 47 Norte 0 -- -- 69
2019-07-23 00:00:00 20.2 13 Norte 24 Norte 0 -- -- 68
2019-07-22 23:00:00 20.6 11 Oeste 33 Este 0 -- -- 68
2019-07-22 22:00:00 21.7 21 Este 37 Este 1 -- -- 61
2019-07-22 21:00:00 23.9 25 Este 57 Sudeste 0 -- -- 46
2019-07-22 20:00:00 32.2 2 Sudeste 8 Sudeste 0 -- -- 34
2019-07-22 19:00:00 33.4 5 Sur 11 Sudeste 0 -- -- 31
2019-07-22 18:00:00 33.8 7 Sudeste 12 Sur 0 -- -- 30
2019-07-22 17:00:00 33.2 9 Sur 13 Sur 0 -- -- 32
2019-07-22 16:00:00 32.4 9 Sur 14 Sudeste 0 -- -- 41
2019-07-22 15:00:00 30.9 8 Sudeste 18 Este 0 -- -- 41
2019-07-22 14:00:00 30.6 10 Este 18 Este 0 -- -- 39
2019-07-22 13:00:00 28.8 9 Este 16 Este 0 -- -- 44
2019-07-22 12:00:00 27 10 Este 17 Este 0 -- -- 48
2019-07-22 11:00:00 25.4 9 Este 20 Nordeste 0 -- -- 55
2019-07-22 10:00:00 23.1 11 Este 15 Este 0 -- -- 62
2019-07-22 09:00:00 18.5 4 Norte 8 Norte 0 -- -- 82
2019-07-22 08:00:00 15.3 6 Norte 9 Noroeste 0 -- -- 88
2019-07-22 07:00:00 14.7 7 Noroeste 12 Norte 0 -- -- 87
2019-07-22 06:00:00 15 6 Noroeste 11 Norte 0 -- -- 86
2019-07-22 05:00:00 15.6 9 Norte 12 Noroeste 0 -- -- 84
2019-07-22 04:00:00 16.6 2 Nordeste 11 Norte 0 -- -- 84
2019-07-22 03:00:00 17 8 Noroeste 11 Noroeste 0 -- -- 81
2019-07-22 02:00:00 19.1 9 Noroeste 12 Noroeste 0 -- -- 76
2019-07-22 01:00:00 20.5 9 Este 14 Este 0 -- -- 72
2019-07-22 00:00:00 22.9 10 Nordeste 28 Nordeste 0 -- -- 57
2019-07-21 23:00:00 22 9 Norte 13 Noroeste 0 -- -- 62
2019-07-21 22:00:00 25.8 8 Noroeste 15 Oeste 0 -- -- 56
2019-07-21 21:00:00 29.3 0 Calma 11 Sudeste 0 -- -- 46
2019-07-21 20:00:00 30.4 6 Sudeste 13 Este 0 -- -- 36
2019-07-21 19:00:00 30.7 9 Este 16 Este 0 -- -- 38
2019-07-21 18:00:00 30.1 7 Este 13 Este 0 -- -- 40
2019-07-21 17:00:00 29.9 8 Sudeste 16 Sudeste 0 -- -- 37
2019-07-21 16:00:00 28.7 7 Sudoeste 15 Sudoeste 0 -- -- 40
2019-07-21 15:00:00 28.3 7 Sudeste 19 Nordeste 0 -- -- 40
2019-07-21 14:00:00 26.5 5 Sudeste 14 Sudeste 0 -- -- 48
2019-07-21 13:00:00 24.5 4 Nordeste 9 Sudeste 0 -- -- 53
2019-07-21 12:00:00 22.7 3 Sudoeste 12 Norte 0 -- -- 59
2019-07-21 11:00:00 20.8 5 Noroeste 13 Noroeste 0 -- -- 66
2019-07-21 10:00:00 18.9 6 Noroeste 13 Noroeste 0 -- -- 72
2019-07-21 09:00:00 16.1 9 Noroeste 13 Noroeste 0 -- -- 83
2019-07-21 08:00:00 13 6 Noroeste 12 Noroeste 0 -- -- 91
2019-07-21 07:00:00 12.9 6 Noroeste 10 Noroeste 0 -- -- 91
2019-07-21 06:00:00 13.4 5 Noroeste 10 Norte 0 -- -- 90
2019-07-21 05:00:00 14 6 Noroeste 8 Noroeste 0 -- -- 89
2019-07-21 04:00:00 15.2 3 Norte 7 Nordeste 0 -- -- 84
2019-07-21 03:00:00 15.9 4 Nordeste 9 Nordeste 0 -- -- 82
2019-07-21 02:00:00 16.6 4 Nordeste 13 Norte 0 -- -- 81
2019-07-21 01:00:00 18 7 Norte 17 Norte 0 -- -- 74
2019-07-21 00:00:00 19.5 8 Nordeste 19 Norte 0 -- -- 68
2019-07-20 23:00:00 20.7 9 Noroeste 18 Oeste 0 -- -- 61
2019-07-20 22:00:00 23.4 13 Oeste 26 Noroeste 0 -- -- 50
2019-07-20 21:00:00 26.6 15 Oeste 25 Oeste 0 -- -- 42
2019-07-20 20:00:00 29.3 15 Noroeste 23 Noroeste 0 -- -- 37
2019-07-20 19:00:00 29.8 5 Este 11 Este 0 -- -- 36
2019-07-20 18:00:00 30.2 3 Sudeste 15 Nordeste 0 -- -- 34
2019-07-20 17:00:00 29.9 8 Este 15 Nordeste 0 -- -- 36
2019-07-20 16:00:00 29.4 6 Sur 15 Este 0 -- -- 36
2019-07-20 15:00:00 29.3 6 Sudeste 18 Sudoeste 0 -- -- 32
2019-07-20 14:00:00 28.1 8 Oeste 18 Oeste 0 -- -- 38
2019-07-20 13:00:00 26.5 9 Oeste 19 Noroeste 0 -- -- 39
2019-07-20 12:00:00 24.7 12 Noroeste 21 Noroeste 0 -- -- 50
2019-07-20 11:00:00 22.8 11 Noroeste 22 Noroeste 0 -- -- 58
2019-07-20 10:00:00 20.6 16 Noroeste 25 Noroeste 0 -- -- 66
2019-07-20 09:00:00 17.6 12 Noroeste 18 Noroeste 0 -- -- 78
2019-07-20 08:00:00 15.6 10 Noroeste 17 Noroeste 0 -- -- 86
2019-07-20 07:00:00 15.5 13 Noroeste 19 Noroeste 0 -- -- 86
2019-07-20 06:00:00 15.4 8 Noroeste 14 Noroeste 0 -- -- 86
2019-07-20 05:00:00 17.4 13 Noroeste 28 Oeste 0 -- -- 79
2019-07-20 04:00:00 18 16 Noroeste 26 Noroeste 0 -- -- 77
2019-07-20 03:00:00 18 9 Noroeste 18 Noroeste 0 -- -- 76
2019-07-20 02:00:00 18.4 10 Noroeste 17 Noroeste 0 -- -- 75
2019-07-20 01:00:00 19.3 12 Noroeste 19 Noroeste 0 -- -- 71
2019-07-20 00:00:00 19.9 14 Noroeste 17 Noroeste 0 -- -- 62
2019-07-19 23:00:00 21.6 10 Noroeste 15 Noroeste 0 -- -- 56
2019-07-19 22:00:00 24.4 8 Noroeste 19 Noroeste 0 -- -- 45
2019-07-19 21:00:00 27.6 14 Noroeste 27 Noroeste 0 -- -- 36
2019-07-19 20:00:00 29.2 17 Noroeste 29 Oeste 0 -- -- 35
2019-07-19 19:00:00 30.3 12 Oeste 27 Sur 0 -- -- 34
2019-07-19 18:00:00 31.5 15 Sur 24 Sur 0 -- -- 28
2019-07-19 17:00:00 30.9 12 Sudeste 21 Este 0 -- -- 30
2019-07-19 16:00:00 29.7 11 Sudeste 18 Sudeste 0 -- -- 34
2019-07-19 15:00:00 28.9 9 Sur 18 Sur 0 -- -- 35
2019-07-19 14:00:00 27.5 9 Sur 14 Sur 0 -- -- 40
2019-07-19 13:00:00 26 6 Sudeste 11 Este 0 -- -- 44
2019-07-19 12:00:00 24.4 4 Este 10 Este 0 -- -- 46
2019-07-19 11:00:00 22.2 3 Noroeste 12 Noroeste 0 -- -- 53
2019-07-19 10:00:00 19.7 6 Noroeste 10 Noroeste 0 -- -- 67
2019-07-19 09:00:00 16.6 5 Noroeste 12 Norte 0 -- -- 78
2019-07-19 08:00:00 13.5 7 Noroeste 10 Noroeste 0 -- -- 89
2019-07-19 07:00:00 12.4 5 Norte 6 Noroeste 0 -- -- 90
2019-07-19 06:00:00 13 4 Noroeste 9 Noroeste 0 -- -- 89
2019-07-19 05:00:00 13.5 5 Noroeste 9 Noroeste 0 -- -- 87
2019-07-19 04:00:00 14.5 6 Noroeste 8 Noroeste 0 -- -- 85
2019-07-19 03:00:00 15.6 6 Noroeste 9 Nordeste 0 -- -- 83
2019-07-19 02:00:00 17.4 6 Nordeste 11 Nordeste 0 -- -- 75
2019-07-19 01:00:00 17.9 6 Nordeste 9 Nordeste 0 -- -- 74
2019-07-19 00:00:00 19.9 4 Nordeste 15 Nordeste 0 -- -- 67